Location: Mat�lon
(46.2791°N, 7.1028°E)
Time: 20:36:34
(UTC+00:00)

Tiangong - Pass Details

Date: 02 October 2021
Orbit: 382 x 384 km, 41.5° (Epoch: 20 October)

Event Time Altitude Azimuth Distance (km) Brightness Sun altitude
Exits shadow 04:25:00 20° 235° (SW) 967 2.6 -12.3°
Maximum altitude 04:26:39 33° 183° (S) 664 2.1 -12.0°
Drops below altitude 10° 04:29:32 10° 117° (ESE) 1,395 4.8 -11.5°
Sets 04:31:42 0° 108° (ESE) 2,246 6.3 -11.1°
